Location: Karcze
(52.0945°N, 22.4786°E)
Time: 23:42:22
(UTC+00:00)

Transit 4A - Pass Details

Date: 05 August 2021
Orbit: 871 x 974 km, 66.8° (Epoch: 18 September)

Event Time Altitude Azimuth Distance (km) Brightness Sun altitude
Rises 00:58:19 0° 281° (W) 3,469 10.7 -14.4°
Reaches altitude 10° 01:01:27 10° 297° (WNW) 2,527 10.1 -14.1°
Maximum altitude 01:05:48 21° 346° (NNW) 1,857 10.0 -13.7°
Drops below altitude 10° 01:10:11 10° 35° (NE) 2,536 11.7 -13.3°
Sets 01:13:20 0° 51° (NE) 3,484 12.7 -13.0°
